Home > Weather > Strasbourg > Past weeks

Flag for France Weather for the Past 2 Weeks in Strasbourg, France

Now
41 °F

Clear.


Feels Like: 41 °F
Forecast: 44 / 53 °F
Wind: 2 mph from North

Location: Strasbourg Airport

Current Time: Feb 7, 2016 at 7:17:59 AM

Latest Report: Feb 7, 2016 at 7:00 AM


Visibility: 10 mi

Pressure: 29.59 "Hg

Humidity: 81%

Dew point: 36 °F

Location of StrasbourgLocation

Historic Weather in Strasbourg — Graph

°F

Strasbourg Temperature Yesterday

Maximum temperature yesterday: 59 °F (at 3:30 PM)
Minimum temperature yesterday: 32 °F (at 2:00 AM)
Average temperature yesterday: 45 °F

High & Low Weather Summary for the Past Weeks

 TemperatureHumidityPressure
High59 °F (Jan 26, 2:30 PM)100% (Jan 23, 9:30 AM)30.63 "Hg (Jan 23, 9:30 AM)
Low30 °F (Jan 23, 10:30 PM)51% (Jan 28, 5:00 AM)29.62 "Hg (Feb 7, 5:30 AM)
Average45 °F81%30.26 "Hg
* Reported Jan 23 6:00 AM — Feb 7 6:00 AM, Strasbourg, Weather by CustomWeather, © 2016

Note: Actual official high and low records may vary slightly from our data, if they occured in-between our weather recording intervals... More about our weather records

Advertising

Strasbourg Weather History for the Previous 24 Hours

 ConditionsComfort  
Time TempWeatherWind HumidityBarometerVisibility
6:00 AM
Sun, Feb 7
41 °FPassing clouds.5 mph81%29.62 "HgN/A
5:30 AM39 °FClear.2 mph87%29.62 "Hg10 mi
5:00 AM39 °FPassing clouds.5 mph87%29.65 "HgN/A
4:30 AM41 °FClear.2 mph81%29.65 "Hg10 mi
4:00 AM39 °FPassing clouds.3 mph87%29.65 "HgN/A
3:30 AM39 °FClear.6 mph81%29.65 "Hg10 mi
3:00 AM39 °FPassing clouds.6 mph81%29.68 "HgN/A
2:30 AM39 °FPassing clouds.3 mph87%29.68 "HgN/A
2:00 AM39 °FClear.2 mph87%29.71 "Hg10 mi
1:30 AM41 °FClear.1 mph81%29.71 "Hg10 mi
1:00 AM43 °FPassing clouds.5 mph81%29.71 "HgN/A
12:30 AM43 °FPassing clouds.7 mph76%29.71 "HgN/A
12:00 AM46 °FClear.8 mph71%29.74 "Hg10 mi
11:30 PM
Sat, Feb 6
43 °FClear.6 mph81%29.74 "Hg10 mi
10:00 PM43 °FPassing clouds.5 mph76%29.77 "HgN/A
9:30 PM46 °FClear.6 mph71%29.77 "Hg10 mi
9:00 PM46 °FClear.6 mph71%29.77 "Hg10 mi
8:30 PM46 °FClear.7 mph76%29.80 "Hg10 mi
8:00 PM43 °FClear.5 mph81%29.80 "Hg10 mi
7:30 PM46 °FClear.2 mph76%29.80 "Hg10 mi
7:00 PM46 °FClear.2 mph76%29.83 "Hg10 mi
6:30 PM46 °FClear.2 mph76%29.83 "Hg10 mi
6:00 PM46 °FClear.7 mph76%29.83 "Hg10 mi
5:30 PM52 °FPassing clouds.6 mph67%29.86 "HgN/A
5:00 PM55 °FPassing clouds.5 mph59%29.86 "HgN/A
4:30 PM57 °FPassing clouds.5 mph59%29.89 "HgN/A
4:00 PM57 °FPassing clouds.7 mph55%29.89 "HgN/A
3:30 PM59 °FPassing clouds.7 mph51%29.92 "HgN/A
3:00 PM57 °FPassing clouds.8 mph55%29.92 "HgN/A
2:30 PM57 °FPassing clouds.8 mph55%29.95 "HgN/A
2:00 PM55 °FPassing clouds.9 mph59%29.98 "HgN/A
1:30 PM55 °FPassing clouds.8 mph63%29.98 "HgN/A
1:00 PM54 °FPassing clouds.6 mph63%30.01 "HgN/A
12:30 PM54 °FPassing clouds.8 mph67%30.04 "HgN/A
12:00 PM50 °FPassing clouds.9 mph71%30.04 "HgN/A
11:30 AM50 °FCool.12 mph71%30.04 "HgN/A
11:00 AM48 °FSunny.14 mph71%30.04 "Hg10 mi
10:30 AM46 °FSunny.14 mph76%30.07 "Hg10 mi
10:00 AM45 °FPassing clouds.13 mph81%30.07 "HgN/A
9:30 AM45 °FPassing clouds.5 mph81%30.07 "HgN/A
9:00 AM43 °FPassing clouds.7 mph81%30.07 "HgN/A
8:30 AM39 °FSunny.9 mph93%30.07 "Hg10 mi
8:00 AM39 °FSunny.9 mph87%30.07 "Hg10 mi
7:30 AM39 °FClear.8 mph87%30.07 "Hg10 mi
7:00 AM39 °FClear.10 mph93%30.07 "Hg10 mi
Weather by CustomWeather, © 2016

See weather overviewHow to use our weather pages